Jersey, United Kingdom

2:26 AM BST on July 27, 2017 (GMT +0100)
Jersey

Weather History for EGJJ - December, 2011

Change the Weather History Date:

Wednesday, December 21, 2011

  Actual Average Record
Temperature  
Mean Temperature 50 °F -  
Max Temperature 53 °F 45 °F 55 °F (2015)
Min Temperature 47 °F 39 °F 32 °F (2007)
Degree Days  
Heating Degree Days 15    
Moisture  
Dew Point 51 °F    
Average Humidity 95    
Maximum Humidity 100    
Minimum Humidity 90    
Precipitation  
Precipitation 0.00 in - - ()
Sea Level Pressure  
Sea Level Pressure 30.18 in    
Wind  
Wind Speed 18 mph ()    
Max Wind Speed 26 mph    
Max Gust Speed 36 mph    
Visibility 4.0 miles    
Events Rain    
Averages and records for this station are not official NWS values.
T = Trace of Precipitation, MM = Missing Value Source: Averaged Metar Reports

Daily Weather History Graph

Daily Weather History Graph

Search for Another Location

Airport or City:

Trip Planner

Search our weather history database for the weather conditions in past years. The results will help you decide how hot, cold, wet, or windy it might be!

Date:

Astronomy

Dec. 21, 2011 Rise Set
Actual Time 8:00 AM GMT 4:12 PM GMT
Civil Twilight 7:23 AM GMT 4:50 PM GMT
Nautical Twilight 6:42 AM GMT 5:31 PM GMT
Astronomical Twilight 6:03 AM GMT 6:09 PM GMT
Moon 4:08 AM GMT (12/21) 1:26 PM GMT (12/21)
Length of Visible Light 9h 26m
Length of Day
8h 11m
Waning Crescent, 14% of the Moon is Illuminated
Dec 21
Waning Crescent
Dec 24
New
Jan 1
First Quarter
Jan 9
Full
Jan 16
Last Quarter

Hourly Weather History & Observations

Time (GMT) Temp. Dew Point Humidity Pressure Visibility Wind Dir Wind Speed Gust Speed Precip Events Conditions
12:00 AM 49 °F 48 °F 93% 30.16 in 2 mi WSW 11.5 mph - - Rain Rain
3:00 AM 53 °F 51 °F 92% 30.09 in 1 mi West 23.0 mph - - Rain Heavy Rain
3:50 AM 51.8 °F 51.8 °F 100% 30.06 in 3.7 mi WNW 26.5 mph - N/A   Mostly Cloudy
4:20 AM 53.6 °F 51.8 °F 94% 30.06 in 3.7 mi WNW 25.3 mph - N/A   Mostly Cloudy
4:50 AM 51.8 °F 51.8 °F 100% 30.06 in 3.7 mi WNW 21.9 mph - N/A   Light Drizzle
5:20 AM 53.6 °F 51.8 °F 94% 30.06 in 3.1 mi NW 26.5 mph - N/A   Light Drizzle
5:50 AM 53.6 °F 51.8 °F 94% 30.06 in 2.8 mi NW 24.2 mph - N/A   Light Drizzle
6:00 AM 53 °F 52 °F 93% 30.09 in 3 mi NW 23.0 mph - - Rain Light Drizzle
6:20 AM 53.6 °F 51.8 °F 94% 30.09 in 2.8 mi NW 19.6 mph - N/A   Light Drizzle
6:50 AM 53.6 °F 51.8 °F 94% 30.09 in 2.2 mi NW 24.2 mph 35.7 mph N/A   Light Drizzle
7:20 AM 53.6 °F 51.8 °F 94% 30.09 in 3.1 mi NW 23.0 mph - N/A   Light Drizzle
7:50 AM 51.8 °F 51.8 °F 100% 30.09 in 3.1 mi WNW 16.1 mph - N/A   Light Drizzle
8:20 AM 51.8 °F 51.8 °F 100% 30.12 in 3.7 mi NW 18.4 mph - N/A   Light Drizzle
8:50 AM 53.6 °F 51.8 °F 94% 30.12 in 3.7 mi WNW 20.7 mph - N/A   Light Drizzle
9:00 AM 53 °F 51 °F 92% 30.15 in 4 mi WNW 19.6 mph - - Rain Light Drizzle
9:20 AM 51.8 °F 50.0 °F 94% 30.15 in 3.7 mi NW 19.6 mph - N/A   Light Drizzle
9:50 AM 53.6 °F 51.8 °F 94% 30.15 in 3.7 mi NW 23.0 mph - N/A   Light Drizzle
10:20 AM 51.8 °F 51.8 °F 100% 30.18 in 2.8 mi NW 19.6 mph 31.1 mph N/A   Light Drizzle
10:50 AM 53.6 °F 51.8 °F 94% 30.18 in 1.9 mi WNW 20.7 mph - N/A   Light Drizzle
11:20 AM 51.8 °F 51.8 °F 100% 30.18 in 3.7 mi WNW 21.9 mph - N/A   Mostly Cloudy
11:50 AM 51.8 °F 51.8 °F 100% 30.18 in 3.1 mi WNW 20.7 mph - N/A   Light Drizzle
12:00 PM 53 °F 52 °F 93% 30.19 in 3 mi WNW 19.6 mph - - Rain Light Drizzle
12:20 PM 51.8 °F 51.8 °F 100% 30.18 in 3.1 mi WNW 19.6 mph - N/A   Light Drizzle
12:50 PM 51.8 °F 50.0 °F 94% 30.18 in 3.7 mi WNW 13.8 mph - N/A   Mostly Cloudy
1:20 PM 51.8 °F 50.0 °F 94% 30.18 in 5.0 mi WNW 18.4 mph - N/A   Mostly Cloudy
1:50 PM 53.6 °F 51.8 °F 94% 30.18 in 5.0 mi WNW 15.0 mph - N/A   Mostly Cloudy
2:20 PM 51.8 °F 51.8 °F 100% 30.18 in 3.7 mi WNW 20.7 mph - N/A   Mostly Cloudy
2:50 PM 51.8 °F 50.0 °F 94% 30.21 in 5.0 mi WNW 17.3 mph - N/A   Mostly Cloudy
3:00 PM 52 °F 51 °F 95% 30.21 in 5 mi WNW 17.3 mph - -   Mist
3:20 PM 51.8 °F 50.0 °F 94% 30.21 in 4.3 mi WNW 12.7 mph - N/A   Mostly Cloudy
3:50 PM 51.8 °F 50.0 °F 94% 30.21 in 4.3 mi NW 18.4 mph - N/A   Mostly Cloudy
4:20 PM 51.8 °F 50.0 °F 94% 30.21 in 3.1 mi WNW 17.3 mph - N/A   Light Drizzle
4:50 PM 51.8 °F 50.0 °F 94% 30.24 in 3.7 mi WNW 17.3 mph - N/A   Mostly Cloudy
5:20 PM 51.8 °F 50.0 °F 94% 30.24 in 3.7 mi NW 15.0 mph - N/A   Mostly Cloudy
5:50 PM 51.8 °F 50.0 °F 94% 30.24 in 6.2 mi WNW 13.8 mph - N/A   Mostly Cloudy
6:00 PM 52 °F 50 °F 90% 30.27 in 6 mi WNW 11.5 mph - -   Partly Cloudy
6:20 PM 51.8 °F 50.0 °F 94% 30.27 in 6.2 mi WNW 15.0 mph - N/A   Mostly Cloudy
6:50 PM 53.6 °F 51.8 °F 94% 30.27 in 6.2 mi WNW 15.0 mph - N/A   Mostly Cloudy
7:20 PM 51.8 °F 50.0 °F 94% 30.27 in 6.2 mi WNW 16.1 mph - N/A   Mostly Cloudy
7:50 PM 51.8 °F 50.0 °F 94% 30.27 in 6.2 mi NW 12.7 mph - N/A   Mostly Cloudy
8:20 PM 51.8 °F 50.0 °F 94% 30.30 in 6.2 mi NW 11.5 mph - N/A   Mostly Cloudy
8:50 PM 51.8 °F 50.0 °F 94% 30.30 in 6.2 mi WNW 11.5 mph - N/A   Mostly Cloudy
9:00 PM 52 °F 51 °F 93% 30.32 in 7 mi WNW 11.5 mph - -   Overcast